| time (UTC) | temp F | wind direction | speed knots | gust knots | rain 1hr in | rain 24hr in | rain mn in | humidity % | barometer mb |
| 20260506073016 | 59 | 229 | 0.0 | 2.6 | 0.00 | 0.02 | 0.00 | 48 | 1007.8 |
| 20260506071513 | 59 | 229 | 0.0 | 0.0 | 0.00 | 0.02 | 0.00 | 50 | 1007.8 |
| 20260506061508 | 57 | 229 | 0.0 | 0.0 | 0.00 | 0.02 | 0.00 | 50 | 1008.1 |
| 20260506044613 | 58 | 229 | 0.0 | 0.0 | 0.00 | 0.02 | 0.00 | 50 | 1008.5 |
| 20260506043059 | 59 | 229 | 0.0 | 0.0 | 0.00 | 0.02 | 0.00 | 50 | 1008.7 |
| 20260506041557 | 59 | 229 | 0.0 | 0.0 | 0.00 | 0.02 | 0.00 | 50 | 1008.7 |
| 20260506040055 | 60 | 360 | 0.0 | 0.0 | 0.00 | 0.02 | 0.00 | 50 | 1008.7 |
| 20260506034600 | 61 | 227 | 0.0 | 0.0 | 0.00 | 0.02 | 0.02 | 50 | 1008.8 |
| 20260506033054 | 62 | 229 | 0.0 | 0.9 | 0.00 | 0.02 | 0.02 | 48 | 1008.6 |
| 20260506031557 | 63 | 229 | 0.0 | 1.7 | 0.00 | 0.02 | 0.02 | 47 | 1008.7 |
| 20260506030053 | 63 | 229 | 0.0 | 1.7 | 0.00 | 0.02 | 0.02 | 47 | 1008.7 |
| 20260506024552 | 63 | 229 | 0.9 | 1.7 | 0.00 | 0.02 | 0.02 | 47 | 1008.6 |
| 20260506023054 | 64 | 360 | 0.0 | 0.0 | 0.00 | 0.02 | 0.02 | 45 | 1008.7 |
| 20260506021556 | 66 | 360 | 0.0 | 0.0 | 0.00 | 0.02 | 0.02 | 43 | 1008.8 |
| 20260506020050 | 68 | 229 | 0.9 | 2.6 | 0.00 | 0.02 | 0.02 | 40 | 1008.7 |
| 20260506014550 | 68 | 229 | 0.0 | 1.7 | 0.00 | 0.02 | 0.02 | 39 | 1008.7 |
| 20260506013049 | 68 | 229 | 0.9 | 2.6 | 0.00 | 0.02 | 0.02 | 38 | 1008.5 |
| 20260506011552 | 68 | 229 | 0.0 | 1.7 | 0.00 | 0.02 | 0.02 | 40 | 1008.3 |
| 20260506010054 | 69 | 229 | 0.0 | 1.7 | 0.00 | 0.02 | 0.02 | 38 | 1008.0 |
| 20260506004546 | 70 | 229 | 0.0 | 1.7 | 0.00 | 0.02 | 0.02 | 37 | 1007.9 |
| 20260506003047 | 70 | 229 | 0.0 | 1.7 | 0.00 | 0.02 | 0.02 | 37 | 1007.9 |
| 20260506001547 | 71 | 229 | 0.0 | 1.7 | 0.00 | 0.02 | 0.02 | 36 | 1007.8 |
| 20260506000047 | 72 | 229 | 0.0 | 2.6 | 0.00 | 0.02 | 0.02 | 34 | 1007.6 |
| 20260505234606 | 72 | 229 | 0.9 | 6.1 | 0.00 | 0.02 | 0.02 | 34 | 1007.6 |
| 20260505233049 | 71 | 238 | 1.7 | 6.1 | 0.00 | 0.02 | 0.02 | 35 | 1007.6 |
| 20260505231544 | 72 | 215 | 0.9 | 4.3 | 0.00 | 0.02 | 0.02 | 35 | 1007.4 |
| 20260505230048 | 71 | 236 | 1.7 | 3.5 | 0.00 | 0.02 | 0.02 | 37 | 1007.3 |
| 20260505224543 | 71 | 236 | 1.7 | 3.5 | 0.00 | 0.02 | 0.02 | 37 | 1007.2 |
| 20260505223051 | 71 | 234 | 0.9 | 3.5 | 0.00 | 0.02 | 0.02 | 38 | 1006.9 |
| 20260505221542 | 71 | 234 | 0.9 | 3.5 | 0.00 | 0.02 | 0.02 | 39 | 1007.1 |
| 20260505220046 | 71 | 234 | 0.9 | 3.5 | 0.00 | 0.02 | 0.02 | 38 | 1007.0 |
| 20260505214553 | 72 | 208 | 0.9 | 3.5 | 0.00 | 0.02 | 0.02 | 36 | 1007.1 |
| 20260505213042 | 74 | 221 | 0.9 | 4.3 | 0.00 | 0.02 | 0.02 | 35 | 1007.0 |
| 20260505211548 | 75 | 186 | 1.7 | 7.0 | 0.00 | 0.02 | 0.02 | 32 | 1006.9 |
| 20260505210038 | 75 | 250 | 7.0 | 17.4 | 0.00 | 0.02 | 0.02 | 32 | 1007.1 |
| 20260505204539 | 76 | 250 | 5.2 | 13.0 | 0.00 | 0.02 | 0.02 | 27 | 1006.5 |
| 20260505203050 | 76 | 235 | 5.2 | 16.5 | 0.00 | 0.02 | 0.02 | 25 | 1006.4 |
| 20260505201537 | 76 | 208 | 7.0 | 12.2 | 0.00 | 0.02 | 0.02 | 25 | 1006.4 |
| 20260505200039 | 76 | 237 | 5.2 | 13.0 | 0.00 | 0.02 | 0.02 | 25 | 1006.3 |
| 20260505194539 | 78 | 234 | 4.3 | 14.8 | 0.00 | 0.02 | 0.02 | 25 | 1006.4 |
| 20260505193033 | 77 | 171 | 7.0 | 16.5 | 0.00 | 0.02 | 0.02 | 25 | 1006.3 |
| 20260505191535 | 76 | 218 | 5.2 | 18.2 | 0.00 | 0.02 | 0.02 | 25 | 1006.6 |
| 20260505190029 | 77 | 235 | 9.6 | 17.4 | 0.00 | 0.02 | 0.02 | 25 | 1006.8 |
| 20260505184541 | 78 | 239 | 11.3 | 21.7 | 0.00 | 0.02 | 0.02 | 23 | 1007.2 |
| 20260505183036 | 78 | 229 | 7.8 | 12.2 | 0.00 | 0.02 | 0.02 | 27 | 1007.4 |
| 20260505181523 | 77 | 237 | 8.7 | 19.1 | 0.00 | 0.02 | 0.02 | 25 | 1007.7 |
| 20260505180021 | 76 | 263 | 6.1 | 14.8 | 0.00 | 0.02 | 0.02 | 29 | 1007.9 |
| 20260505174521 | 76 | 245 | 7.8 | 23.5 | 0.00 | 0.02 | 0.02 | 27 | 1008.1 |
| 20260505173017 | 77 | 218 | 4.3 | 13.0 | 0.00 | 0.02 | 0.02 | 29 | 1007.8 |
| 20260505171515 | 77 | 188 | 5.2 | 13.0 | 0.00 | 0.02 | 0.02 | 31 | 1008.0 |
| 20260505170013 | 77 | 200 | 4.3 | 13.0 | 0.00 | 0.02 | 0.02 | 31 | 1008.0 |
| 20260505164508 | 77 | 237 | 6.1 | 13.0 | 0.00 | 0.02 | 0.02 | 31 | 1008.3 |
| 20260505163006 | 76 | 234 | 5.2 | 12.2 | 0.00 | 0.02 | 0.02 | 33 | 1008.5 |
| 20260505161601 | 75 | 205 | 4.3 | 13.9 | 0.00 | 0.02 | 0.02 | 35 | 1008.5 |
| 20260505153053 | 74 | 208 | 6.1 | 13.9 | 0.00 | 0.02 | 0.02 | 35 | 1008.8 |
| 20260505151548 | 73 | 242 | 5.2 | 13.0 | 0.00 | 0.02 | 0.02 | 38 | 1009.1 |
| 20260505124514 | 64 | 217 | 2.6 | 4.3 | 0.00 | 0.02 | 0.02 | 47 | 1010.1 |
| 20260505123008 | 62 | 238 | 2.6 | 4.3 | 0.00 | 0.02 | 0.02 | 48 | 1010.0 |
| 20260505121504 | 60 | 229 | 2.6 | 6.1 | 0.00 | 0.02 | 0.02 | 50 | 1010.0 |
| 20260505120117 | 58 | 226 | 0.9 | 2.6 | 0.00 | 0.02 | 0.02 | 54 | 1010.0 |
| 20260505114600 | 56 | 226 | 0.0 | 1.7 | 0.00 | 0.02 | 0.02 | 55 | 1010.1 |
| 20260505113104 | 56 | 226 | 0.0 | 1.7 | 0.00 | 0.02 | 0.02 | 56 | 1010.2 |
| 20260505111552 | 55 | 226 | 0.0 | 1.7 | 0.00 | 0.02 | 0.02 | 56 | 1010.0 |
| 20260505101545 | 53 | 360 | 0.0 | 1.7 | 0.00 | 0.02 | 0.02 | 55 | 1009.5 |
| 20260505100039 | 54 | 360 | 0.0 | 0.0 | 0.00 | 0.02 | 0.02 | 52 | 1009.3 |
| 20260505094538 | 55 | 360 | 0.0 | 4.3 | 0.00 | 0.02 | 0.02 | 52 | 1009.3 |
| 20260505093050 | 54 | 360 | 1.7 | 4.3 | 0.01 | 0.02 | 0.02 | 53 | 1009.0 |
| 20260505091537 | 53 | 360 | 1.7 | 5.2 | 0.01 | 0.02 | 0.02 | 56 | 1009.0 |
| 20260505090037 | 52 | 360 | 0.9 | 2.6 | 0.02 | 0.02 | 0.02 | 58 | 1009.0 |
| 20260505084536 | 53 | 360 | 0.9 | 3.5 | 0.02 | 0.02 | 0.02 | 57 | 1009.3 |
| 20260505083039 | 53 | 360 | 0.0 | 1.7 | 0.01 | 0.01 | 0.01 | 57 | 1009.2 |
| 20260505081532 | 54 | 219 | 0.9 | 3.5 | 0.00 | 0.00 | 0.00 | 55 | 1009.2 |
| 20260505080034 | 53 | 222 | 0.0 | 2.6 | 0.00 | 0.00 | 0.00 | 54 | 1009.2 |